Regional Weather Roundup
Issued by NWS

Home | Current Version | Previous Version | Text Only | Print | Product List | Glossary Off
Versions: 1 2 3 4 5 6 7 8 9 10 11 12 13 14 15 16 17 18 19 20 21 22 23 24 25 26 27 28 29 30 31 32 33 34 35 36 37 38 39 40 41 42 43 44 45 46 47 48 49 50

000
ASUS43 KMPX 291701
RWRMN
WEATHER ROUNDUP FOR MINNESOTA
NATIONAL WEATHER SERVICE TWIN CITIES/CHANHASSEN MN
1200 PM CDT TUE JUL 29 2014


NOTE: "FAIR" INDICATES FEW OR NO CLOUDS BELOW 12,000 FEET WITH NO
SIGNIFICANT WEATHER AND/OR OBSTRUCTIONS TO VISIBILITY. N/A MEANS
CURRENT SKY AND/OR WEATHER CONDITIONS ARE NOT AVAILABLE.

MNZ060>063-068>070-291800-
   Twin Cities Metro

CITY           SKY/WX    TMP DP  RH WIND       PRES   REMARKS
TWIN CITIES    MOSUNNY   77  55  46 W8G18     30.12S
ST PAUL        MOSUNNY   76  56  49 NW9       30.11F
CRYSTAL        MOSUNNY   77  56  48 W12       30.11S
BLAINE         MOSUNNY   75  59  57 W10       30.12S
LAKEVILLE      SUNNY     73  57  56 W9        30.13S
EDEN PRAIRIE   SUNNY     76  58  53 NW12      30.12F
SOUTH ST PAUL  MOSUNNY   75  55  48 NW8       30.11F
LAKE ELMO      FAIR      75  59  57 W8        30.12S
$$
MNZ001>005-007-008-013>017-022>024-027-028-291800-
   Northwest Minnesota

CITY           SKY/WX    TMP DP  RH WIND       PRES   REMARKS
BEMIDJI        MOSUNNY   72  56  57 NW12      30.15S
HALLOCK        SUNNY     73  55  53 NW7       30.15F
ROSEAU         SUNNY     73  61  64 W8        30.13F
WARROAD        SUNNY     73  57  56 NW13G20   30.13S
THIEF RVR FALL SUNNY     72  55  56 N6        30.17S
CROOKSTON      SUNNY     72  57  60 NW9       30.18S
FOSSTON        MOSUNNY   72  54  53 W7        30.17F
DETROIT LAKES  MOSUNNY   70  54  56 N10       30.19F
MOORHEAD       MOSUNNY   73  55  53 NW7       30.18S
PARK RAPIDS    MOSUNNY   73  53  49 NW12      30.16S
$$
MNZ006-009>011-018-025>026-291800-
   North Central Minnesota

CITY           SKY/WX    TMP DP  RH WIND       PRES   REMARKS
BAUDETTE       SUNNY     73  55  53 NW15      30.11F
FLAG ISLAND    SUNNY     72  55  56 NW15      30.09S
INTL FALLS     SUNNY     74  58  57 NW6G16    30.07S
WASKISH        SUNNY     73  55  53 NW9       30.12S
BIG FORK       SUNNY     73  54  49 W9        30.10F
LONGVILLE      MOSUNNY   72  59  64 W13       30.14S
GRAND RAPIDS   SUNNY     72  54  53 NW13      30.11F
CRANE LAKE     MOSUNNY   70  59  68 NW7       30.06F
ORR            SUNNY     73  55  53 NW10      30.05S
COOK           SUNNY     72  57  60 W13       30.07S
$$
MNZ012-019>021-037-291800-
   Northeast Minnesota

CITY           SKY/WX    TMP DP  RH WIND       PRES   REMARKS
DULUTH         LGT RAIN  65  55  70 N17G28    30.09R
ELY            MOSUNNY   72  57  60 NW6       30.04F
HIBBING        SUNNY     74  55  51 NW9       30.08S
EVELETH        MOSUNNY   72  59  64 W12       30.08F
DULUTH HARBOR  PTSUNNY   73  55  53 NW14G21   30.05S
TWO HARBORS    MOSUNNY   72  55  56 NW10G16   30.02S
SILVER BAY     SUNNY     73  61  64 NW8       30.01S
GRAND MARAIS     N/A     54  52  93 W3        30.02R
G MARAIS ARPRT TSTM      59  54  82 CALM      30.05R
$$
MNZ029>031-032-039>041-046>048-054>057-064-291800-
   West Central Minnesota

CITY           SKY/WX    TMP DP  RH WIND       PRES   REMARKS
FERGUS FALLS   PTSUNNY   70  54  56 NW7       30.18S
WHEATON        SUNNY     70  55  60 W7        30.21F
MORRIS         SUNNY     73  57  56 NW8       30.18F
ALEXANDRIA     SUNNY     73  54  51 NW9       30.19S
ELBOW LAKE     FAIR      70  57  63 NW7       30.19S
WADENA         SUNNY     72  55  56 N9        30.17S
GLENWOOD       MOSUNNY   72  57  60 NW9       30.19S
APPLETON       MOSUNNY   73  55  53 NW7       30.18F
BENSON         MOSUNNY   73  55  53 N9        30.18F
ORTONVILLE     SUNNY     72  55  56 N9        30.19F
MADISON        SUNNY     73  57  56 NW10      30.19F
WILLMAR        FAIR      73  54  49 NW8       30.19S
$$
MNZ033>034-036-042>043-049>051-058-059-291800-
   Central Minnesota

CITY           SKY/WX    TMP DP  RH WIND       PRES   REMARKS
ST CLOUD       SUNNY     78  57  48 N8        30.13F
SAUK CENTRE    FAIR      73  55  53 NW10      30.17S
PAYNESVILLE    MOSUNNY   71  52  50 SW7       30.17S
AITKIN         MOSUNNY   73  61  64 NW5       30.11S
PINE RIVER     MOSUNNY   73  57  56 NW7       30.17S
BRAINERD       PTSUNNY   71  56  58 W10       30.14S
STAPLES        MOSUNNY   72  54  53 NW10G18   30.16S
LONG PRAIRIE   FAIR      70  55  60 NW8       30.17S
LITTLE FALLS   MOSUNNY   73  54  49 NW6       30.14F
LITCHFIELD     SUNNY     73  55  53 W9        30.16F
BUFFALO        SUNNY     76  56  50 NW7       30.14F
MAPLE LAKE     MOSUNNY   75  60  59 W9        30.15S
$$
MNZ037-044-045-052-053-291800-
   East Central Minnesota

CITY           SKY/WX    TMP DP  RH WIND       PRES   REMARKS
PRINCETON      SUNNY     79  57  47 NW5       30.12F
MORA           SUNNY     73  57  56 NW9       30.13S
CAMBRIDGE      SUNNY     79  61  53 N6        30.10S
RUSH CITY      SUNNY     75  58  55 NW7       30.10F
MOOSE LAKE     MOSUNNY   73  55  53 NW9       30.08S
HINCKLEY       FAIR      73  59  60 NW12      30.10S
CLOQUET        MOSUNNY   73  54  49 NW15      30.08S
MCGREGOR       SUNNY     73  57  56 NW9G17    30.12S
$$
MNZ071>073-080-081-089-090-097-098-291800-
   Southwest Minnesota

CITY           SKY/WX    TMP DP  RH WIND       PRES   REMARKS
MONTEVIDEO     MOSUNNY   73  57  56 N9        30.19F
GRANITE FALLS  MOSUNNY   71  55  56 NW9       30.20F
CANBY          MOSUNNY   74  52  47 N6        30.21F
MARSHALL       PTSUNNY   70  54  56 N9        30.19F
REDWOOD FALLS  MOSUNNY   73  54  51 NW10G16   30.18S
OLIVIA         SUNNY     73  59  60 NW9       30.17S
PIPESTONE      PTSUNNY   70  52  52 NW6       30.22S
WINDOM         SUNNY     70  54  56 NW7       30.20F
WORTHINGTON    PTSUNNY   68  52  56 NW6       30.22F
JACKSON        PTSUNNY   72  52  49 N7        30.21S
TRACY          PTSUNNY   72  56  56 N9        30.21S
SLAYTON        MOSUNNY   70  53  54 CALM      30.22F
$$
MNZ065>067-074>077-082>085-091>093-291800-
   South Central Minnesota

CITY           SKY/WX    TMP DP  RH WIND       PRES   REMARKS
MANKATO        SUNNY     73  52  46 W13       30.16S
NEW ULM        MOSUNNY   73  57  56 NW8       30.17S
ST JAMES       MOSUNNY   73  54  49 NW6       30.19S
FAIRMONT       PTSUNNY   73  54  49 N6        30.18F
GLENCOE        MOSUNNY   75  53  47 W6        30.15S
FARIBAULT      SUNNY     77  54  44 W8        30.15S
OWATONNA       MOSUNNY   73  57  56 NW9       30.15S
WASECA         MOSUNNY   72  54  53 NW9       30.17S
ALBERT LEA     SUNNY     73  55  53 NW6G17    30.16S
$$
MNZ078>079-086>088-094>096-291800-
   Southeast Minnesota

CITY           SKY/WX    TMP DP  RH WIND       PRES   REMARKS
ROCHESTER      MOSUNNY   74  57  55 W9        30.14F
RED WING       MOSUNNY   77  57  50 W10G16    30.10S
STANTON        SUNNY     75  58  55 W10       30.12S
DODGE CENTER   SUNNY     72  59  64 N13       30.15S
WINONA         SUNNY     77  55  47 N8        30.09F
AUSTIN         MOSUNNY   73  55  53 NW9G16    30.14F
PRESTON        MOSUNNY   72  62  71 NW13      30.14S
$$
ABBREVIATIONS USED IN REMARKS
   TC - TEMPERATURES IN CELSIUS
  WCI - WIND CHILL INDEX
   HX - HEAT INDEX
  VSB - VISIBILITY
$$


USA.gov is the U.S. government's official web portal to all federal, state and local government web resources and services.